Time,TemperatureF,DewpointF,PressureIn,WindDirection,WindDirectionDegrees,WindSpeedMPH,WindSpeedGustMPH,Humidity,HourlyPrecipIn,Conditions,Clouds,dailyrainin,SoftwareType,DateUTC
2013-11-19 17:10:00,36.5,9.4,30.31,WNW,293,0.0,3.0,32,0.00,,,-99.99,Weather View 32 v60,2013-11-19 22:10:00,
2013-11-19 17:15:00,36.3,9.2,30.31,WNW,293,0.0,0.0,32,0.00,,,-99.99,Weather View 32 v60,2013-11-19 22:15:00,
2013-11-19 17:20:00,36.1,9.1,30.31,WNW,293,0.0,0.0,32,0.00,,,-99.99,Weather View 32 v60,2013-11-19 22:20:00,
2013-11-19 17:30:00,35.8,9.5,30.31,WNW,293,0.0,0.0,33,0.00,,,-99.99,Weather View 32 v60,2013-11-19 22:30:00,
2013-11-19 17:35:00,35.2,9.0,30.31,WNW,293,0.0,0.0,33,0.00,,,-99.99,Weather View 32 v60,2013-11-19 22:35:00,
2013-11-19 17:40:00,34.9,8.7,30.31,WNW,293,0.0,0.0,33,0.00,,,-99.99,Weather View 32 v60,2013-11-19 22:40:00,
2013-11-19 17:45:00,34.5,8.3,30.31,WNW,293,0.0,0.0,33,0.00,,,-99.99,Weather View 32 v60,2013-11-19 22:45:00,
2013-11-19 17:50:00,34.3,8.2,30.31,WNW,293,0.0,0.0,33,0.00,,,-99.99,Weather View 32 v60,2013-11-19 22:50:00,
2013-11-19 18:00:00,34.0,7.9,30.31,WNW,293,0.0,0.0,33,0.00,,,-99.99,Weather View 32 v60,2013-11-19 23:00:00,
2013-11-19 18:05:00,33.8,8.4,30.31,WNW,293,0.0,0.0,34,0.00,,,-99.99,Weather View 32 v60,2013-11-19 23:05:00,
2013-11-19 18:10:00,33.4,8.1,30.34,WNW,293,0.0,0.0,34,0.00,,,-99.99,Weather View 32 v60,2013-11-19 23:10:00,
2013-11-19 18:13:00,33.4,8.1,30.34,WNW,293,0.0,0.0,34,0.00,,,-99.99,Weather View 32 v60,2013-11-19 23:13:00,
2013-11-19 18:20:00,32.9,7.6,30.34,WNW,293,0.0,0.0,34,0.00,,,-99.99,Weather View 32 v60,2013-11-19 23:20:00,
2013-11-19 18:30:00,32.2,7.6,30.34,WNW,293,0.0,0.0,35,0.00,,,-99.99,Weather View 32 v60,2013-11-19 23:30:00,
2013-11-19 18:35:00,32.0,7.4,30.34,WNW,293,0.0,0.0,35,0.00,,,-99.99,Weather View 32 v60,2013-11-19 23:35:00,
2013-11-19 18:40:00,31.6,7.1,30.34,WNW,293,0.0,0.0,35,0.00,,,-99.99,Weather View 32 v60,2013-11-19 23:40:00,
2013-11-19 18:45:00,31.3,6.8,30.34,WNW,293,0.0,0.0,35,0.00,,,-99.99,Weather View 32 v60,2013-11-19 23:45:00,
2013-11-19 18:50:00,31.1,6.6,30.34,WNW,293,0.0,0.0,35,0.00,,,-99.99,Weather View 32 v60,2013-11-19 23:50:00,
2013-11-19 18:55:00,30.9,6.5,30.34,WNW,293,0.0,0.0,35,0.00,,,-99.99,Weather View 32 v60,2013-11-19 23:55:00,
2013-11-19 19:05:00,30.6,6.8,30.34,WNW,293,0.0,0.0,36,0.00,,,-99.99,Weather View 32 v60,2013-11-20 00:05:00,
2013-11-19 19:10:00,30.4,6.6,30.34,WNW,293,0.0,0.0,36,0.00,,,-99.99,Weather View 32 v60,2013-11-20 00:10:00,
2013-11-19 19:15:00,30.2,7.0,30.34,WNW,293,0.0,0.0,37,0.00,,,-99.99,Weather View 32 v60,2013-11-20 00:15:00,
2013-11-19 19:20:00,30.0,6.9,30.34,WNW,293,0.0,0.0,37,0.00,,,-99.99,Weather View 32 v60,2013-11-20 00:20:00,
2013-11-19 19:25:00,29.8,7.3,30.34,WNW,293,0.0,0.0,38,0.00,,,-99.99,Weather View 32 v60,2013-11-20 00:25:00,
2013-11-19 19:30:00,29.5,7.0,30.34,WNW,293,0.0,0.0,38,0.00,,,-99.99,Weather View 32 v60,2013-11-20 00:30:00,
2013-11-19 19:35:00,29.5,7.0,30.34,WNW,293,0.0,0.0,38,0.00,,,-99.99,Weather View 32 v60,2013-11-20 00:35:00,
2013-11-19 19:40:00,29.3,7.4,30.31,WNW,293,0.0,0.0,39,0.00,,,-99.99,Weather View 32 v60,2013-11-20 00:40:00,
2013-11-19 19:45:00,29.1,7.2,30.31,WNW,293,0.0,0.0,39,0.00,,,-99.99,Weather View 32 v60,2013-11-20 00:45:00,
2013-11-19 19:55:00,28.8,7.5,30.34,WNW,293,0.0,4.0,40,0.00,,,-99.99,Weather View 32 v60,2013-11-20 00:55:00,
2013-11-19 20:00:00,28.8,7.5,30.34,WNW,293,0.0,4.0,40,0.00,,,-99.99,Weather View 32 v60,2013-11-20 01:00:00,
2013-11-19 20:05:00,28.8,8.0,30.34,WNW,293,0.0,4.0,41,0.00,,,-99.99,Weather View 32 v60,2013-11-20 01:05:00,
2013-11-19 20:10:00,28.9,8.2,30.34,WNW,293,0.0,4.0,41,0.00,,,-99.99,Weather View 32 v60,2013-11-20 01:10:00,
2013-11-19 20:15:00,29.1,8.3,30.34,WNW,293,0.0,4.0,41,0.00,,,-99.99,Weather View 32 v60,2013-11-20 01:15:00,
2013-11-19 20:20:00,29.3,8.5,30.34,WNW,293,0.0,4.0,41,0.00,,,-99.99,Weather View 32 v60,2013-11-20 01:20:00,
2013-11-19 20:25:00,29.5,8.7,30.34,WNW,293,0.0,4.0,41,0.00,,,-99.99,Weather View 32 v60,2013-11-20 01:25:00,
2013-11-19 20:30:00,29.5,8.7,30.34,WNW,293,0.0,4.0,41,0.00,,,-99.99,Weather View 32 v60,2013-11-20 01:30:00,
2013-11-19 20:40:00,29.7,8.8,30.34,WNW,293,0.0,4.0,41,0.00,,,-99.99,Weather View 32 v60,2013-11-20 01:40:00,
2013-11-19 20:45:00,29.8,9.0,30.34,WNW,293,0.0,4.0,41,0.00,,,-99.99,Weather View 32 v60,2013-11-20 01:45:00,
2013-11-19 20:50:00,29.8,9.0,30.34,WNW,293,0.0,3.0,41,0.00,,,-99.99,Weather View 32 v60,2013-11-20 01:50:00,
2013-11-19 20:55:00,29.8,9.0,30.34,WNW,293,0.0,2.0,41,0.00,,,-99.99,Weather View 32 v60,2013-11-20 01:55:00,
2013-11-19 21:00:00,29.7,8.8,30.34,WNW,293,0.0,0.0,41,0.00,,,-99.99,Weather View 32 v60,2013-11-20 02:00:00,
2013-11-19 21:05:00,29.7,8.8,30.34,WNW,293,0.0,0.0,41,0.00,,,-99.99,Weather View 32 v60,2013-11-20 02:05:00,
2013-11-19 21:10:00,29.7,8.8,30.34,WNW,293,0.0,0.0,41,0.00,,,-99.99,Weather View 32 v60,2013-11-20 02:10:00,
2013-11-19 21:15:00,29.5,8.7,30.34,WNW,293,0.0,0.0,41,0.00,,,-99.99,Weather View 32 v60,2013-11-20 02:15:00,
2013-11-19 21:25:00,29.1,8.3,30.34,WNW,293,0.0,0.0,41,0.00,,,-99.99,Weather View 32 v60,2013-11-20 02:25:00,
2013-11-19 21:30:00,29.1,8.3,30.34,WNW,293,0.0,0.0,41,0.00,,,-99.99,Weather View 32 v60,2013-11-20 02:30:00,
2013-11-19 21:35:00,28.8,8.0,30.34,WNW,293,0.0,0.0,41,0.00,,,-99.99,Weather View 32 v60,2013-11-20 02:35:00,
2013-11-19 21:40:00,28.6,7.8,30.34,WNW,293,0.0,0.0,41,0.00,,,-99.99,Weather View 32 v60,2013-11-20 02:40:00,
2013-11-19 21:45:00,28.6,7.8,30.34,WNW,293,0.0,0.0,41,0.00,,,-99.99,Weather View 32 v60,2013-11-20 02:45:00,
2013-11-19 21:50:00,28.6,7.8,30.34,WNW,293,0.0,0.0,41,0.00,,,-99.99,Weather View 32 v60,2013-11-20 02:50:00,
2013-11-19 22:00:00,28.2,8.1,30.34,WNW,293,0.0,0.0,42,0.00,,,-99.99,Weather View 32 v60,2013-11-20 03:00:00,
2013-11-19 22:05:00,28.0,7.9,30.34,WNW,293,0.0,0.0,42,0.00,,,-99.99,Weather View 32 v60,2013-11-20 03:05:00,
2013-11-19 22:10:00,28.0,7.9,30.34,WNW,293,0.0,0.0,42,0.00,,,-99.99,Weather View 32 v60,2013-11-20 03:10:00,
2013-11-19 22:15:00,27.9,7.7,30.34,WNW,293,0.0,0.0,42,0.00,,,-99.99,Weather View 32 v60,2013-11-20 03:15:00,
2013-11-19 22:20:00,27.7,7.6,30.34,WNW,293,0.0,0.0,42,0.00,,,-99.99,Weather View 32 v60,2013-11-20 03:20:00,
2013-11-19 22:25:00,27.7,7.6,30.34,WNW,293,0.0,0.0,42,0.00,,,-99.99,Weather View 32 v60,2013-11-20 03:25:00,
2013-11-19 22:30:00,27.5,7.4,30.34,WNW,293,0.0,0.0,42,0.00,,,-99.99,Weather View 32 v60,2013-11-20 03:30:00,
2013-11-19 22:40:00,27.7,8.1,30.34,WNW,293,0.0,0.0,43,0.00,,,-99.99,Weather View 32 v60,2013-11-20 03:40:00,
2013-11-19 22:45:00,27.9,8.2,30.34,WNW,293,0.0,0.0,43,0.00,,,-99.99,Weather View 32 v60,2013-11-20 03:45:00,
2013-11-19 22:50:00,28.0,8.4,30.34,WNW,294,2.0,3.0,43,0.00,,,-99.99,Weather View 32 v60,2013-11-20 03:50:00,
2013-11-19 22:55:00,28.2,8.6,30.34,WNW,294,2.0,4.0,43,0.00,,,-99.99,Weather View 32 v60,2013-11-20 03:55:00,
2013-11-19 23:00:00,28.4,8.7,30.34,SE,127,2.0,4.0,43,0.00,,,-99.99,Weather View 32 v60,2013-11-20 04:00:00,
2013-11-19 23:05:00,28.6,8.4,30.34,ESE,122,3.0,4.0,42,0.00,,,-99.99,Weather View 32 v60,2013-11-20 04:05:00,
2013-11-19 23:15:00,28.6,8.4,30.34,SE,129,3.0,4.0,42,0.00,,,-99.99,Weather View 32 v60,2013-11-20 04:15:00,
2013-11-19 23:20:00,28.8,8.5,30.34,ESE,115,3.0,4.0,42,0.00,,,-99.99,Weather View 32 v60,2013-11-20 04:20:00,
2013-11-19 23:25:00,28.8,8.5,30.34,ESE,106,5.0,6.0,42,0.00,,,-99.99,Weather View 32 v60,2013-11-20 04:25:00,
2013-11-19 23:30:00,28.9,8.7,30.34,ESE,118,3.0,6.0,42,0.00,,,-99.99,Weather View 32 v60,2013-11-20 04:30:00,
2013-11-19 23:35:00,28.9,8.7,30.34,ENE,71,2.0,6.0,42,0.00,,,-99.99,Weather View 32 v60,2013-11-20 04:35:00,
2013-11-19 23:40:00,28.9,8.7,30.37,East,85,3.0,6.0,42,0.00,,,-99.99,Weather View 32 v60,2013-11-20 04:40:00,
2013-11-19 23:45:00,28.9,8.7,30.37,ESE,123,3.0,6.0,42,0.00,,,-99.99,Weather View 32 v60,2013-11-20 04:45:00,
2013-11-19 23:50:00,28.9,8.7,30.37,SE,140,3.0,6.0,42,0.00,,,-99.99,Weather View 32 v60,2013-11-20 04:50:00,